Ship,Cruise,No,Date,,,Time,,Latitude,Longitude,xCO2_Air,F,xCO2_Sea,F,Wind_Dir,Wind_Spd,Atm_Prs,Atm_Tmp.,SST,F,SSS,F,PH2O
,,,Year,Month,Day,Hour,"Min,",Deg.,Deg.,ppm,,ppm,,Deg.,m/s,hPa,deg.C,deg.C,,,,hPa
Hakuho-maru,KH68-4,23,1968,11,18,5,,30.1,160.19,323.3,8,295.5,5,-99,-9.9,1017.2,-99.9,23.4,2,-9.999,9,28.2
Hakuho-maru,KH68-4,24,1968,11,18,6,,30.11,160.49,323.3,8,294.7,5,-99,-9.9,1017.7,-99.9,23.4,2,-9.999,9,28.2
Hakuho-maru,KH68-4,25,1968,11,18,7,,30.11,160.69,323.3,8,297.9,5,-99,-9.9,1018,-99.9,23.2,2,-9.999,9,27.9
Hakuho-maru,KH68-4,26,1968,11,18,8,,30.11,160.93,323.3,8,299.3,5,-99,-9.9,1018.2,-99.9,23.6,2,-9.999,9,28.6
Hakuho-maru,KH68-4,27,1968,11,18,9,,30.12,161.18,323.3,8,301,5,-99,-9.9,1017.6,-99.9,23.5,2,-9.999,9,28.4
Hakuho-maru,KH68-4,28,1968,11,18,10,,30.12,161.43,323.3,8,300.6,5,-99,-9.9,1017.2,-99.9,23.6,2,-9.999,9,28.6
Hakuho-maru,KH68-4,29,1968,11,18,11,,30.13,161.69,323.3,8,300.6,5,-99,-9.9,1015.7,-99.9,23.6,2,-9.999,9,28.6
Hakuho-maru,KH68-4,30,1968,11,18,12,,30.12,161.95,323.3,8,301.5,5,-99,-9.9,1015,-99.9,23.7,2,-9.999,9,28.7
Hakuho-maru,KH68-4,31,1968,11,18,13,,30.12,162.22,323.3,8,300.2,5,-99,-9.9,1015.2,-99.9,23.6,2,-9.999,9,28.6
Hakuho-maru,KH68-4,32,1968,11,18,14,,30.11,162.48,323.3,8,300.2,5,-99,-9.9,1015.4,-99.9,23.6,2,-9.999,9,28.6
Hakuho-maru,KH68-4,33,1968,11,18,15,,30.11,162.75,323.3,8,300.3,5,-99,-9.9,1015.2,-99.9,23.9,2,-9.999,9,29.1
Hakuho-maru,KH68-4,34,1968,11,18,16,,30.1,163.01,323.3,8,303.2,5,-99,-9.9,1015.2,-99.9,23.5,2,-9.999,9,28.4
Hakuho-maru,KH68-4,35,1968,11,18,19,,30.06,163.84,323.3,8,303.1,5,-99,-9.9,1016.6,-99.9,23.4,2,-9.999,9,28.3
Hakuho-maru,KH68-4,36,1968,11,18,22,,30.04,164.38,323.3,8,303.2,5,-99,-9.9,1016.3,-99.9,23.4,2,-9.999,9,28.2
Hakuho-maru,KH68-4,37,1968,11,18,23,,30.04,164.65,323.3,8,302.7,5,-99,-9.9,1016.2,-99.9,23.2,2,-9.999,9,27.9
Hakuho-maru,KH68-4,38,1968,11,19,0,,30.04,164.91,323.4,8,301.5,5,-99,-9.9,1015.7,-99.9,23.4,2,-9.999,9,28.2
Hakuho-maru,KH68-4,39,1968,11,19,1,,30.04,165.18,323.4,8,301.5,5,-99,-9.9,1015.4,-99.9,23.4,2,-9.999,9,28.3
Hakuho-maru,KH68-4,40,1968,11,19,2,,30.04,165.44,323.4,8,302.3,5,-99,-9.9,1015.1,-99.9,23.4,2,-9.999,9,28.2
Hakuho-maru,KH68-4,41,1968,11,19,3,,30.04,165.7,323.4,8,298.9,5,-99,-9.9,1015.3,-99.9,23.5,2,-9.999,9,28.3
Hakuho-maru,KH68-4,42,1968,11,19,4,,30.04,165.97,323.4,8,296.9,5,-99,-9.9,1015.5,-99.9,23.5,2,-9.999,9,28.4
Hakuho-maru,KH68-4,43,1968,11,19,5,,30.04,166.24,323.4,8,298.5,5,-99,-9.9,1015,-99.9,24.3,2,-9.999,9,29.8
Hakuho-maru,KH68-4,44,1968,11,19,6,,30.04,166.5,323.4,8,297.2,5,-99,-9.9,1015.4,-99.9,24.2,2,-9.999,9,29.6
Hakuho-maru,KH68-4,45,1968,11,19,7,,30.04,166.76,323.4,8,296.9,5,-99,-9.9,1017.4,-99.9,24.5,2,-9.999,9,30.1
Hakuho-maru,KH68-4,46,1968,11,19,18,,29.84,166.92,323.6,8,299.7,5,-99,-9.9,1018,-99.9,23.8,2,-9.999,9,28.9
Hakuho-maru,KH68-4,47,1968,11,19,19,,29.84,167.19,323.6,8,297.7,5,-99,-9.9,1018.2,-99.9,24.1,2,-9.999,9,29.4
Hakuho-maru,KH68-4,48,1968,11,19,19.5,,29.84,167.45,323.6,8,296,5,-99,-9.9,1019,-99.9,23,2,-9.999,9,27.5
Hakuho-maru,KH68-4,49,1968,11,19,20,,29.83,167.46,323.6,8,295.7,5,-99,-9.9,1019.2,-99.9,23.1,2,-9.999,9,27.7
Hakuho-maru,KH68-4,50,1968,11,19,21,,29.82,167.73,323.6,8,295.3,5,-99,-9.9,1019.2,-99.9,23.1,2,-9.999,9,27.7
Hakuho-maru,KH68-4,51,1968,11,19,22,,29.81,168,323.6,8,295.7,5,-99,-9.9,1019.1,-99.9,23.2,2,-9.999,9,27.8
Hakuho-maru,KH68-4,52,1968,11,19,23,,29.84,168.27,323.6,8,297.7,5,-99,-9.9,1019.2,-99.9,23,2,-9.999,9,27.5
Hakuho-maru,KH68-4,53,1968,11,20,0,,29.87,168.53,323.6,8,294.2,5,-99,-9.9,1018.9,-99.9,23.4,2,-9.999,9,28.2
Hakuho-maru,KH68-4,54,1968,11,20,1,,29.89,168.79,323.7,8,295.9,5,-99,-9.9,1018.8,-99.9,23.5,2,-9.999,9,28.3
Hakuho-maru,KH68-4,55,1968,11,20,2,,29.91,169.05,323.7,8,296,5,-99,-9.9,1018.7,-99.9,23.6,2,-9.999,9,28.6
Hakuho-maru,KH68-4,56,1968,11,20,3,,29.93,169.33,323.7,8,294.3,5,-99,-9.9,1018.9,-99.9,23.5,2,-9.999,9,28.3
Hakuho-maru,KH68-4,57,1968,11,20,4,,29.94,169.6,323.7,8,295.9,5,-99,-9.9,1019.1,-99.9,23.3,2,-9.999,9,28
Hakuho-maru,KH68-4,58,1968,11,20,5,,29.95,169.87,323.7,8,292.2,5,-99,-9.9,1019,-99.9,23.2,2,-9.999,9,27.9
Hakuho-maru,KH70-1,176,1970,2,13,17,,40,160.16,327,8,313.9,5,-99,-9.9,1018.5,-99.9,11.3,2,-9.999,9,10.5
Hakuho-maru,KH70-1,177,1970,2,13,18,,40,160.42,327,8,311.7,5,-99,-9.9,1017.7,-99.9,11.4,2,-9.999,9,10.6
Hakuho-maru,KH70-1,178,1970,2,13,19,,40,160.68,327,8,310.7,5,-99,-9.9,1017.7,-99.9,11.5,2,-9.999,9,10.7
Hakuho-maru,KH70-1,179,1970,2,13,20,,39.9,160.79,327,8,304.8,5,-99,-9.9,1017.5,-99.9,11.6,2,-9.999,9,10.8
Hakuho-maru,KH70-1,180,1970,2,13,21,,39.78,160.86,327,8,319.6,5,-99,-9.9,1017.5,-99.9,11.5,2,-9.999,9,10.8
Hakuho-maru,KH70-1,181,1970,2,13,22,,39.65,160.92,327,8,319.6,5,-99,-9.9,1017,-99.9,11.3,2,-9.999,9,10.5
Hakuho-maru,KH70-1,182,1970,2,13,23,,39.52,160.98,327,8,318.7,5,-99,-9.9,1016.8,-99.9,11.1,2,-9.999,9,10.3
Hakuho-maru,KH70-1,183,1970,2,14,0,,39.4,161.04,327,8,318,5,-99,-9.9,1017,-99.9,10.9,2,-9.999,9,10.1
Hakuho-maru,KH70-1,184,1970,2,14,1,,39.27,161.1,327,8,317.4,5,-99,-9.9,1016.4,-99.9,10.7,2,-9.999,9,9.9
Hakuho-maru,KH70-1,185,1970,2,14,2,,39.04,161.1,327,8,313.6,5,-99,-9.9,1015.9,-99.9,10.5,2,-9.999,9,9.7
Hakuho-maru,KH70-1,186,1970,2,14,3,,38.81,161.1,327,8,314.7,5,-99,-9.9,1015.2,-99.9,10.7,2,-9.999,9,9.9
Hakuho-maru,KH70-1,187,1970,2,14,4,,38.58,161.1,327,8,311.7,5,-99,-9.9,1014.9,-99.9,11.2,2,-9.999,9,10.4
Hakuho-maru,KH70-1,188,1970,2,14,5,,38.35,161.1,327,8,313.8,5,-99,-9.9,1014.3,-99.9,11.6,2,-9.999,9,10.8
Hakuho-maru,KH70-1,189,1970,2,14,6,,38.12,161.1,327,8,309.4,5,-99,-9.9,1013.5,-99.9,12,2,-9.999,9,11.3
Hakuho-maru,KH70-1,190,1970,2,14,7,,37.9,161.1,327,8,315.5,5,-99,-9.9,1013.3,-99.9,12.5,2,-9.999,9,11.7
Hakuho-maru,KH70-1,191,1970,2,14,8,,37.71,161.11,327,8,319.7,5,-99,-9.9,1012.8,-99.9,12.9,2,-9.999,9,12.2
Hakuho-maru,KH70-1,192,1970,2,14,9,,37.51,161.11,327,8,314.6,5,-99,-9.9,1013.7,-99.9,13.4,2,-9.999,9,12.6
Hakuho-maru,KH70-1,193,1970,2,14,10,,37.31,161.12,327,8,304.4,5,-99,-9.9,1011.9,-99.9,13.8,2,-9.999,9,13.1
Hakuho-maru,KH70-1,194,1970,2,14,11,,37.12,161.13,327,8,312.2,5,-99,-9.9,1011.4,-99.9,14.3,2,-9.999,9,13.6
Hakuho-maru,KH70-1,195,1970,2,14,12,,36.92,161.13,327,8,302.7,5,-99,-9.9,1011,-99.9,14.7,2,-9.999,9,14
Hakuho-maru,KH70-1,196,1970,2,14,13,,36.77,161.13,327,8,297.4,5,-99,-9.9,1010.7,-99.9,15.2,2,-9.999,9,14.5
Hakuho-maru,KH70-1,197,1970,2,14,14,,36.63,161.12,327,8,284.9,5,-99,-9.9,1010.5,-99.9,15.5,2,-9.999,9,14.9
Hakuho-maru,KH70-1,198,1970,2,14,15,,36.5,161.11,327,8,287.1,5,-99,-9.9,1009.7,-99.9,15.5,2,-9.999,9,14.9
Hakuho-maru,KH70-1,199,1970,2,14,16,,36.37,161.11,327,8,294.5,5,-99,-9.9,1010.1,-99.9,15.6,2,-9.999,9,14.9
Hakuho-maru,KH70-1,200,1970,2,14,17,,36.24,161.1,327,8,292.8,5,-99,-9.9,1009.9,-99.9,15.6,2,-9.999,9,14.9
Hakuho-maru,KH70-1,201,1970,2,14,18,,36.11,161.09,327,8,289.9,5,-99,-9.9,1009.7,-99.9,15.6,2,-9.999,9,15
Hakuho-maru,KH70-1,202,1970,2,14,19,,36,161.08,327,8,288.9,5,-99,-9.9,1009.9,-99.9,15.7,2,-9.999,9,15
Hakuho-maru,KH70-1,203,1970,2,14,20,,35.91,161.06,327,8,287.5,5,-99,-9.9,1010,-99.9,15.7,2,-9.999,9,15
Hakuho-maru,KH70-1,204,1970,2,14,21,,35.81,161.05,327,8,280,5,-99,-9.9,1011.2,-99.9,15.7,2,-9.999,9,15.1
Hakuho-maru,KH70-1,205,1970,2,14,22,,35.71,161.03,327,8,285.9,5,-99,-9.9,1010.3,-99.9,15.7,2,-9.999,9,15.1
Hakuho-maru,KH70-1,206,1970,2,14,23,,35.62,161.01,327,8,288.3,5,-99,-9.9,1010.4,-99.9,15.7,2,-9.999,9,15.1
Hakuho-maru,KH70-1,207,1970,2,15,0,,35.5,161,327,8,294.9,5,-99,-9.9,1010.5,-99.9,15.7,2,-9.999,9,15.1
Hakuho-maru,KH70-1,208,1970,2,15,1,,35.28,161,327,8,291.6,5,-99,-9.9,1010.4,-99.9,15.8,2,-9.999,9,15.1
Hakuho-maru,KH70-1,209,1970,2,15,2,,35.06,161,327,8,290.1,5,-99,-9.9,1010.2,-99.9,15.9,2,-9.999,9,15.3
Hakuho-maru,KH70-1,210,1970,2,15,3,,34.84,161,327,8,283.2,5,-99,-9.9,1009.2,-99.9,16.1,2,-9.999,9,15.5
Hakuho-maru,KH70-1,211,1970,2,15,4,,34.63,161,327,8,286.5,5,-99,-9.9,1009.8,-99.9,16.3,2,-9.999,9,15.7
Hakuho-maru,KH70-1,212,1970,2,15,5,,34.41,161,327,8,290.3,5,-99,-9.9,1009.7,-99.9,16.5,2,-9.999,9,15.9
Hakuho-maru,KH70-1,213,1970,2,15,6,,34.21,160.97,327,8,289.3,5,-99,-9.9,1009.7,-99.9,16.7,2,-9.999,9,16.1
Hakuho-maru,KH70-1,214,1970,2,15,7,,34.02,160.9,327,8,291.4,5,-99,-9.9,1009.7,-99.9,16.9,2,-9.999,9,16.2
Hakuho-maru,KH70-1,215,1970,2,15,8,,33.83,160.83,327,8,291.8,5,-99,-9.9,1009.8,-99.9,17,2,-9.999,9,16.4
Hakuho-maru,KH70-1,216,1970,2,15,9,,33.65,160.75,327,8,295.5,5,-99,-9.9,1011.2,-99.9,17.2,2,-9.999,9,16.6
Hakuho-maru,KH70-1,217,1970,2,15,10,,33.46,160.68,327,8,292.6,5,-99,-9.9,1010,-99.9,17.3,2,-9.999,9,16.7
Hakuho-maru,KH70-1,218,1970,2,15,11,,33.28,160.61,327,8,290.9,5,-99,-9.9,1010.2,-99.9,17.5,2,-9.999,9,16.9
Hakuho-maru,KH70-1,219,1970,2,15,12,,33.09,160.5,327,8,394.9,5,-99,-9.9,1009.8,-99.9,17.6,2,-9.999,9,17.1
Hakuho-maru,KH70-1,220,1970,2,15,13,,32.91,160.37,327,8,394.9,5,-99,-9.9,1009.3,-99.9,17.8,2,-9.999,9,17.2
Hakuho-maru,KH70-1,221,1970,2,15,14,,32.72,160.24,327,8,395,5,-99,-9.9,1008.9,-99.9,17.9,2,-9.999,9,17.4
Hakuho-maru,KH70-1,222,1970,2,15,15,,32.54,160.12,327,8,395,5,-99,-9.9,1008.2,-99.9,18.1,2,-9.999,9,17.5
Hakuho-maru,KH70-2,43,1970,4,17,13,,41.93,160.06,330.2,8,328.5,5,-99,-9.9,1014.5,-99.9,8.1,2,-9.999,9,10.6
Hakuho-maru,KH70-2,44,1970,4,17,14,,42.02,160.33,330.2,8,322.5,5,-99,-9.9,1014.2,-99.9,7.2,2,-9.999,9,10
Hakuho-maru,KH70-2,45,1970,4,17,15,,42.1,160.6,330.2,8,322.3,5,-99,-9.9,1013.9,-99.9,8.2,2,-9.999,9,10.7
Hakuho-maru,KH70-2,46,1970,4,17,16,,42.2,160.89,330.2,8,327.3,5,-99,-9.9,1013.6,-99.9,7.7,2,-9.999,9,10.3
Hakuho-maru,KH70-2,47,1970,4,17,17,,42.3,161.19,330.2,8,344.3,5,-99,-9.9,1013.2,-99.9,6.6,2,-9.999,9,9.6
Hakuho-maru,KH70-2,48,1970,4,17,18,,42.4,161.48,330.2,8,354,5,-99,-9.9,1012.9,-99.9,6.5,2,-9.999,9,9.5
Hakuho-maru,KH70-2,49,1970,4,17,19,,42.5,161.78,330.2,8,343,5,-99,-9.9,1012.6,-99.9,6.6,2,-9.999,9,9.6
Hakuho-maru,KH70-2,50,1970,4,17,20,,42.59,162.04,330.2,8,351.8,5,-99,-9.9,1012.1,-99.9,6.6,2,-9.999,9,9.6
Hakuho-maru,KH70-2,51,1970,4,17,21,,42.61,162.12,330.2,8,351,5,-99,-9.9,1010.8,-99.9,6.2,2,-9.999,9,9.3
Hakuho-maru,KH70-2,52,1970,4,17,22,,42.64,162.2,330.2,8,342.5,5,-99,-9.9,1009.5,-99.9,6.3,2,-9.999,9,9.4
Hakuho-maru,KH70-2,53,1970,4,17,23,,42.66,162.28,330.2,8,345.4,5,-99,-9.9,1008.1,-99.9,6.2,2,-9.999,9,9.3
Hakuho-maru,KH70-2,54,1970,4,18,0,,42.69,162.36,330.2,8,345.4,5,-99,-9.9,1006.8,-99.9,6.2,2,-9.999,9,9.3
Hakuho-maru,KH70-2,55,1970,4,18,1,,42.7,162.4,330.2,8,342.5,5,-99,-9.9,1005.1,-99.9,6.2,2,-9.999,9,9.3
Hakuho-maru,KH70-2,56,1970,4,18,2,,42.7,162.4,330.2,8,340.3,5,-99,-9.9,1003.1,-99.9,6.3,2,-9.999,9,9.4
Hakuho-maru,KH70-2,57,1970,4,18,3,,42.7,162.4,330.2,8,337.5,5,-99,-9.9,1001,-99.9,6.3,2,-9.999,9,9.4
Hakuho-maru,KH70-2,58,1970,4,18,4,,42.7,162.4,330.2,8,341.5,5,-99,-9.9,999,-99.9,6.3,2,-9.999,9,9.4
Hakuho-maru,KH70-2,59,1970,4,18,5,,42.7,162.4,330.2,8,348.2,5,-99,-9.9,996.9,-99.9,6.3,2,-9.999,9,9.4
Hakuho-maru,KH70-2,60,1970,4,18,6,,42.8,162.62,330.2,8,348.4,5,-99,-9.9,996.5,-99.9,6.4,2,-9.999,9,9.4
Hakuho-maru,KH70-2,61,1970,4,18,7,,42.93,162.89,330.2,8,352.5,5,-99,-9.9,996.4,-99.9,6.5,2,-9.999,9,9.5
Hakuho-maru,KH70-2,62,1970,4,18,8,,43.05,163.16,330.2,8,350.5,5,-99,-9.9,996.3,-99.9,6.3,2,-9.999,9,9.4
Hakuho-maru,KH70-2,63,1970,4,18,9,,43.18,163.43,330.2,8,348.3,5,-99,-9.9,996.2,-99.9,5.1,2,-9.999,9,8.6
Hakuho-maru,KH70-2,64,1970,4,18,10,,43.3,163.7,330.2,8,356.5,5,-99,-9.9,996,-99.9,6.5,2,-9.999,9,9.5
Hakuho-maru,KH70-2,65,1970,4,18,11,,43.4,164,330.2,8,359.1,5,-99,-9.9,995.6,-99.9,6.6,2,-9.999,9,9.6
Hakuho-maru,KH70-2,66,1970,4,18,12,,43.5,164.3,330.2,8,363.9,5,-99,-9.9,995.2,-99.9,4.5,2,-9.999,9,8.2
Hakuho-maru,KH70-2,67,1970,4,18,13,,43.6,164.6,330.2,8,381.6,5,-99,-9.9,994.7,-99.9,4.4,2,-9.999,9,8.2
Hakuho-maru,KH70-2,68,1970,4,18,14,,43.7,164.9,330.2,8,381.5,5,-99,-9.9,994.3,-99.9,5.3,2,-9.999,9,8.7
Hakuho-maru,KH70-2,69,1970,4,18,15,,43.8,165.2,330.2,8,371.6,5,-99,-9.9,994.2,-99.9,5.2,2,-9.999,9,8.6
Hakuho-maru,KH70-2,70,1970,4,18,16,,43.89,165.49,330.2,8,366.2,5,-99,-9.9,994.5,-99.9,4.6,2,-9.999,9,8.3
Hakuho-maru,KH70-2,71,1970,4,18,17,,43.98,165.78,330.3,8,360.6,5,-99,-9.9,994.7,-99.9,4.7,2,-9.999,9,8.4
Hakuho-maru,KH70-2,72,1970,4,18,18,,44.07,166.07,330.3,8,367.2,5,-99,-9.9,994.9,-99.9,5.5,2,-9.999,9,8.8
Hakuho-maru,KH70-2,73,1970,4,18,19,,44.17,166.37,330.3,8,369.2,5,-99,-9.9,995.2,-99.9,5.5,2,-9.999,9,8.8
Hakuho-maru,KH70-2,74,1970,4,18,20,,44.25,166.67,330.3,8,370.8,5,-99,-9.9,995.6,-99.9,5.7,2,-9.999,9,9
Hakuho-maru,KH70-2,75,1970,4,18,21,,44.34,166.98,330.3,8,372.8,5,-99,-9.9,996.1,-99.9,5.7,2,-9.999,9,9
Hakuho-maru,KH70-2,76,1970,4,18,22,,44.43,167.28,330.3,8,351.6,5,-99,-9.9,996.7,-99.9,4,2,-9.999,9,8
Hakuho-maru,KH70-2,77,1970,4,18,23,,44.52,167.59,330.3,8,347.2,5,-99,-9.9,997.2,-99.9,3,2,-9.999,9,7.4
Hakuho-maru,KH70-2,78,1970,4,19,0,,44.59,167.9,330.3,8,359.9,5,-99,-9.9,997.8,-99.9,2.7,2,-9.999,9,7.3
Hakuho-maru,KH70-2,79,1970,4,19,1,,44.61,168.2,330.3,8,347.9,5,-99,-9.9,998.8,-99.9,3.8,2,-9.999,9,7.8
Hakuho-maru,KH70-2,80,1970,4,19,2,,44.64,168.5,330.3,8,372.6,5,-99,-9.9,999.8,-99.9,4.1,2,-9.999,9,8
Hakuho-maru,KH70-2,81,1970,4,19,3,,44.66,168.8,330.3,8,369,5,-99,-9.9,1000.8,-99.9,3.8,2,-9.999,9,7.8
Hakuho-maru,KH70-2,82,1970,4,19,4,,44.69,169.1,330.3,8,339.6,5,-99,-9.9,1001.8,-99.9,3.6,2,-9.999,9,7.7
Hakuho-maru,KH70-2,83,1970,4,19,5,,44.7,169.41,330.3,8,336.8,5,-99,-9.9,1003.1,-99.9,4.1,2,-9.999,9,8
Hakuho-maru,KH70-2,84,1970,4,19,6,,44.7,169.73,330.3,8,330.8,5,-99,-9.9,1004.7,-99.9,3.3,2,-9.999,9,7.6
Hakuho-maru,KH70-2,986,1970,6,13,4,,40.8,169.87,328,8,305.6,5,-99,-9.9,1006.7,-99.9,10.9,2,-9.999,9,13
Hakuho-maru,KH70-2,987,1970,6,13,5,,40.8,169.53,327.9,8,299.8,5,-99,-9.9,1005.9,-99.9,11.9,2,-9.999,9,13.9
Hakuho-maru,KH70-2,988,1970,6,13,6,,40.8,169.2,327.9,8,310,5,-99,-9.9,1005.4,-99.9,12.2,2,-9.999,9,14.2
Hakuho-maru,KH70-2,989,1970,6,13,7,,40.8,168.9,327.9,8,303.2,5,-99,-9.9,1005.5,-99.9,12.3,2,-9.999,9,14.3
Hakuho-maru,KH70-2,990,1970,6,13,8,,40.8,168.6,327.8,8,300.2,5,-99,-9.9,1005.5,-99.9,10.5,2,-9.999,9,12.7
Hakuho-maru,KH70-2,991,1970,6,13,9,,40.8,168.3,327.8,8,299.6,5,-99,-9.9,1005.7,-99.9,12.2,2,-9.999,9,14.2
Hakuho-maru,KH70-2,992,1970,6,13,10,,40.8,168,327.8,8,302,5,-99,-9.9,1006.5,-99.9,10.9,2,-9.999,9,13
Hakuho-maru,KH70-2,993,1970,6,13,11,,40.8,167.7,327.7,8,300,5,-99,-9.9,1007.7,-99.9,12.6,2,-9.999,9,14.5
Hakuho-maru,KH70-2,994,1970,6,13,12,,40.8,167.4,327.7,8,305.6,5,-99,-9.9,1008.7,-99.9,13.3,2,-9.999,9,15.3
Hakuho-maru,KH70-2,995,1970,6,13,13,,40.8,167.1,327.7,8,305.6,5,-99,-9.9,1008.9,-99.9,12.7,2,-9.999,9,14.6
Hakuho-maru,KH70-2,996,1970,6,13,14,,40.8,166.8,327.6,8,297.8,5,-99,-9.9,1009.1,-99.9,12.7,2,-9.999,9,14.6
Hakuho-maru,KH70-2,997,1970,6,13,15,,40.8,166.5,327.6,8,301.8,5,-99,-9.9,1009.3,-99.9,12.7,2,-9.999,9,14.7
Hakuho-maru,KH70-2,998,1970,6,13,16,,40.8,166.23,327.6,8,295.6,5,-99,-9.9,1009.9,-99.9,12.2,2,-9.999,9,14.2
Hakuho-maru,KH70-2,999,1970,6,13,17,,40.8,165.97,327.6,8,297.2,5,-99,-9.9,1010.6,-99.9,13.6,2,-9.999,9,15.6
Hakuho-maru,KH70-2,1000,1970,6,13,18,,40.8,165.7,327.5,8,303.7,5,-99,-9.9,1011.1,-99.9,14,2,-9.999,9,16
Hakuho-maru,KH70-2,1001,1970,6,13,19,,40.8,165.4,327.5,8,299.4,5,-99,-9.9,1011.4,-99.9,14.5,2,-9.999,9,16.5
Hakuho-maru,KH70-2,1002,1970,6,13,20,,40.8,165.1,327.5,8,308.8,5,-99,-9.9,1011.5,-99.9,13.1,2,-9.999,9,15.1
Hakuho-maru,KH70-2,1003,1970,6,13,21,,40.8,164.8,327.5,8,301.6,5,-99,-9.9,1011.6,-99.9,11.7,2,-9.999,9,13.7
Hakuho-maru,KH70-2,1004,1970,6,13,22,,40.8,164.52,327.4,8,311,5,-99,-9.9,1011.5,-99.9,12.1,2,-9.999,9,14.1
Hakuho-maru,KH70-2,1005,1970,6,13,23,,40.8,164.25,327.4,8,302.8,5,-99,-9.9,1011.5,-99.9,9.6,2,-9.999,9,12
Hakuho-maru,KH70-2,1006,1970,6,14,0,,40.78,164.01,327.4,8,303,5,-99,-9.9,1011.4,-99.9,11.9,2,-9.999,9,13.9
Hakuho-maru,KH70-2,1007,1970,6,14,1,,40.73,163.8,327.4,8,304.1,5,-99,-9.9,1011.4,-99.9,8.7,2,-9.999,9,11.3
Hakuho-maru,KH70-2,1008,1970,6,14,2,,40.67,163.6,327.4,8,306.4,5,-99,-9.9,1011.3,-99.9,12.2,2,-9.999,9,14.2
Hakuho-maru,KH70-2,1009,1970,6,14,3,,40.6,163.39,327.3,8,306.4,5,-99,-9.9,1011.2,-99.9,12.2,2,-9.999,9,14.2
Hakuho-maru,KH70-2,1010,1970,6,14,4,,40.53,163.13,327.3,8,303.6,5,-99,-9.9,1010.5,-99.9,11.4,2,-9.999,9,13.4
Hakuho-maru,KH70-2,1011,1970,6,14,5,,40.47,162.87,327.3,8,310.5,5,-99,-9.9,1009.5,-99.9,12.1,2,-9.999,9,14.1
Hakuho-maru,KH70-2,1012,1970,6,14,6,,40.4,162.6,327.3,8,311.5,5,-99,-9.9,1008.7,-99.9,11.7,2,-9.999,9,13.7
Hakuho-maru,KH70-2,1013,1970,6,14,7,,40.33,162.33,327.3,8,312.1,5,-99,-9.9,1008.1,-99.9,11.9,2,-9.999,9,13.9
Hakuho-maru,KH70-2,1014,1970,6,14,8,,40.27,162.07,327.3,8,314.3,5,-99,-9.9,1007.6,-99.9,11.5,2,-9.999,9,13.5
Hakuho-maru,KH70-2,1015,1970,6,14,9,,40.2,161.79,327.2,8,308.3,5,-99,-9.9,1007.3,-99.9,10.3,2,-9.999,9,12.5
Hakuho-maru,KH70-2,1016,1970,6,14,10,,40.13,161.5,327.2,8,305,5,-99,-9.9,1007.2,-99.9,11.5,2,-9.999,9,13.5
Hakuho-maru,KH70-2,1017,1970,6,14,11,,40.07,161.2,327.2,8,307.4,5,-99,-9.9,1007.2,-99.9,12.6,2,-9.999,9,14.5
Hakuho-maru,KH70-2,1018,1970,6,14,12,,40,160.9,327.2,8,304.8,5,-99,-9.9,1007.2,-99.9,12.7,2,-9.999,9,14.7
Hakuho-maru,KH70-2,1019,1970,6,14,13,,39.93,160.63,327.2,8,298.4,5,-99,-9.9,1007.2,-99.9,12.6,2,-9.999,9,14.5
Hakuho-maru,KH70-2,1020,1970,6,14,14,,39.87,160.37,327.2,8,300.6,5,-99,-9.9,1007.2,-99.9,13.3,2,-9.999,9,15.3
Hakuho-maru,KH70-2,1021,1970,6,14,15,,39.79,160.1,327.2,8,307.2,5,-99,-9.9,1007.3,-99.9,14,2,-9.999,9,16
Kaiyo-Maru,Ki87,82,1987,11,1,0,,27.933,161.067,347.8,2,331.1,2,-99,-9.9,-9.9,-99.9,25.4,2,-9.999,9,31.83
Kaiyo-Maru,Ki87,83,1987,11,1,1,,27.867,161.317,347.8,2,324.5,2,-99,-9.9,-9.9,-99.9,25.6,2,-9.999,9,32.21
Kaiyo-Maru,Ki87,84,1987,11,1,2,,27.8,161.55,347.7,2,320.8,2,-99,-9.9,-9.9,-99.9,25.4,2,-9.999,9,31.83
Kaiyo-Maru,Ki87,85,1987,11,1,3,,27.717,161.783,347.6,2,314.8,2,-99,-9.9,-9.9,-99.9,25.5,2,-9.999,9,32.02
Kaiyo-Maru,Ki87,86,1987,11,1,4,,27.65,162.017,347.7,2,322.5,2,-99,-9.9,-9.9,-99.9,25.4,2,-9.999,9,31.83
Kaiyo-Maru,Ki87,87,1987,11,1,5,,27.567,162.25,347.6,2,321.4,2,-99,-9.9,-9.9,-99.9,25.4,2,-9.999,9,31.83
Kaiyo-Maru,Ki87,88,1987,11,1,6,,27.483,162.483,347.6,2,326.9,2,-99,-9.9,-9.9,-99.9,25.3,2,-9.999,9,31.64
Kaiyo-Maru,Ki87,89,1987,11,1,7,,27.417,162.717,347.8,2,322.7,2,-99,-9.9,-9.9,-99.9,25.3,2,-9.999,9,31.64
Kaiyo-Maru,Ki87,90,1987,11,1,8,,27.317,162.967,347.7,2,322.6,2,-99,-9.9,-9.9,-99.9,25.6,2,-9.999,9,32.21
Kaiyo-Maru,Ki87,91,1987,11,1,9,,27.25,163.183,347.7,2,323.4,2,-99,-9.9,-9.9,-99.9,25.6,2,-9.999,9,32.21
Kaiyo-Maru,Ki87,92,1987,11,1,10,,27.15,163.483,347.8,2,318.5,2,-99,-9.9,-9.9,-99.9,25.6,2,-9.999,9,32.21
Kaiyo-Maru,Ki87,93,1987,11,1,11,,27.083,163.667,347.7,2,316.7,2,-99,-9.9,-9.9,-99.9,25.6,2,-9.999,9,32.21
Kaiyo-Maru,Ki87,94,1987,11,1,12,,27,163.9,347.8,2,320.2,2,-99,-9.9,-9.9,-99.9,25.6,2,-9.999,9,32.21
Kaiyo-Maru,Ki87,95,1987,11,1,13,,26.933,164.133,347.8,2,323.4,2,-99,-9.9,-9.9,-99.9,25.6,2,-9.999,9,32.21
Kaiyo-Maru,Ki87,96,1987,11,1,14,,26.85,164.367,347.6,2,320.8,2,-99,-9.9,-9.9,-99.9,25.7,2,-9.999,9,32.4
Kaiyo-Maru,Ki87,97,1987,11,1,15,,26.75,164.583,347.7,2,315.8,2,-99,-9.9,-9.9,-99.9,27.8,4,-9.999,9,36.66
Kaiyo-Maru,Ki87,98,1987,11,1,16,,26.667,164.817,347.7,2,321.1,2,-99,-9.9,-9.9,-99.9,25.7,2,-9.999,9,32.4
Kaiyo-Maru,Ki87,99,1987,11,1,17,,26.583,165.05,347.7,2,319.3,2,-99,-9.9,-9.9,-99.9,27.9,4,-9.999,9,36.87
Kaiyo-Maru,Ki87,100,1987,11,1,18,,26.5,165.267,347.6,2,321.4,2,-99,-9.9,-9.9,-99.9,25.7,2,-9.999,9,32.4
Kaiyo-Maru,Ki87,101,1987,11,1,19,,26.433,165.5,347.6,2,318.2,2,-99,-9.9,-9.9,-99.9,25.7,2,-9.999,9,32.4
Kaiyo-Maru,Ki87,102,1987,11,1,20,,26.35,165.717,347.5,2,318,2,-99,-9.9,-9.9,-99.9,25.7,2,-9.999,9,32.4
Kaiyo-Maru,Ki87,103,1987,11,1,21,,26.283,165.95,347.6,2,317.1,2,-99,-9.9,-9.9,-99.9,26.4,2,-9.999,9,33.77
Kaiyo-Maru,Ki87,104,1987,11,1,22,,26.217,166.167,347.6,2,316,2,-99,-9.9,-9.9,-99.9,26.5,2,-9.999,9,33.97
Kaiyo-Maru,Ki87,105,1987,11,1,23,,26.15,166.367,347.5,2,310.9,2,-99,-9.9,-9.9,-99.9,26.7,2,-9.999,9,34.37
Kaiyo-Maru,Ki87,106,1987,11,2,0,,26.083,166.583,347.6,2,308.1,2,-99,-9.9,-9.9,-99.9,26.5,2,-9.999,9,33.97
Kaiyo-Maru,Ki87,107,1987,11,2,1,,26.017,166.817,347.4,2,312.9,2,-99,-9.9,-9.9,-99.9,26.6,2,-9.999,9,34.17
Kaiyo-Maru,Ki87,108,1987,11,2,2,,25.95,167.033,347.5,2,313.9,2,-99,-9.9,-9.9,-99.9,26.6,2,-9.999,9,34.17
Kaiyo-Maru,Ki87,109,1987,11,2,3,,25.883,167.233,347.3,2,317.6,2,-99,-9.9,-9.9,-99.9,26.6,2,-9.999,9,34.17
Kaiyo-Maru,Ki87,110,1987,11,2,4,,25.783,167.45,347.4,2,320.5,2,-99,-9.9,-9.9,-99.9,26.4,2,-9.999,9,33.77
Kaiyo-Maru,Ki87,111,1987,11,2,5,,25.683,167.65,347.6,2,317.8,2,-99,-9.9,-9.9,-99.9,25.3,4,-9.999,9,31.64
Kaiyo-Maru,Ki87,112,1987,11,2,6,,25.6,167.883,347.4,2,312.2,2,-99,-9.9,-9.9,-99.9,25.1,4,-9.999,9,31.26
Kaiyo-Maru,Ki87,113,1987,11,2,7,,25.517,168.1,347.4,2,313.7,2,-99,-9.9,-9.9,-99.9,25.3,4,-9.999,9,31.64
Kaiyo-Maru,Ki87,114,1987,11,2,8,,25.45,168.333,347.5,2,310.9,2,-99,-9.9,-9.9,-99.9,26.4,2,-9.999,9,33.77
Kaiyo-Maru,Ki87,115,1987,11,2,9,,25.383,168.557,347.5,2,310.4,2,-99,-9.9,-9.9,-99.9,26.5,2,-9.999,9,33.97
Kaiyo-Maru,Ki87,116,1987,11,2,10,,25.35,168.781,347.7,2,313.1,2,-99,-9.9,-9.9,-99.9,26.4,2,-9.999,9,33.77
Kaiyo-Maru,Ki87,117,1987,11,2,11,,25.283,169.05,347.5,2,311,2,-99,-9.9,-9.9,-99.9,26.3,2,-9.999,9,33.57
Kaiyo-Maru,Ki87,118,1987,11,2,12,,25.233,169.267,347.4,2,320.2,2,-99,-9.9,-9.9,-99.9,26.2,2,-9.999,9,33.37
Kaiyo-Maru,Ki87,119,1987,11,2,13,,25.167,169.483,347.3,2,316.9,2,-99,-9.9,-9.9,-99.9,26.5,2,-9.999,9,33.97
Kaiyo-Maru,Ki87,120,1987,11,2,14,,25.067,169.7,347.3,2,317.9,2,-99,-9.9,-9.9,-99.9,26.2,2,-9.999,9,33.37
Kaiyo-Maru,Ki87,121,1987,11,2,15,,25.033,169.917,347.4,2,319,2,-99,-9.9,-9.9,-99.9,26.2,2,-9.999,9,33.37
Kaiyo-Maru,Ki87,78,1987,11,31,20,,28.25,160.117,347.6,2,315.9,2,-99,-9.9,-9.9,-99.9,25.9,2,-9.999,9,32.79
Kaiyo-Maru,Ki87,79,1987,11,31,21,,28.183,160.35,347.8,2,320.4,2,-99,-9.9,-9.9,-99.9,25.4,2,-9.999,9,31.83
Kaiyo-Maru,Ki87,80,1987,11,31,22,,28.117,160.6,347.8,2,328.8,2,-99,-9.9,-9.9,-99.9,25.4,2,-9.999,9,31.83
Kaiyo-Maru,Ki87,81,1987,11,31,23,,28.033,160.833,347.6,2,325.4,2,-99,-9.9,-9.9,-99.9,25.4,2,-9.999,9,31.83
Hakuho-maru,KH88-1,853,1988,3,7,13,,6.0167,169.983,352.2,2,348.3,2,-99,-9.9,1010.7,-99.9,28.8,2,-9.999,9,38.83
Hakuho-maru,KH88-1,854,1988,3,7,14,,6.0333,169.983,352.3,2,347.7,2,-99,-9.9,1010.5,-99.9,28.8,2,-9.999,9,38.92
Hakuho-maru,KH88-1,855,1988,3,7,15,,6.0167,169.967,352.2,2,347.2,2,-99,-9.9,1010,-99.9,28.7,2,-9.999,9,38.63
Hakuho-maru,KH88-1,856,1988,3,7,16,,5.8833,169.817,351.5,3,345.7,2,-99,-9.9,1009.5,-99.9,28.7,2,-9.999,9,38.52
Hakuho-maru,KH88-1,857,1988,3,7,17,,5.75,169.65,351.6,3,347.4,2,-99,-9.9,1009.5,-99.9,28.7,2,-9.999,9,38.54
Hakuho-maru,KH88-1,858,1988,3,7,18,,5.6833,169.467,352.4,2,346.4,2,-99,-9.9,1010,-99.9,28.6,2,-9.999,9,38.41
Hakuho-maru,KH88-1,859,1988,3,7,19,,5.6333,169.233,352.1,2,349,2,-99,-9.9,1010.5,-99.9,28.7,2,-9.999,9,38.67
Hakuho-maru,KH88-1,860,1988,3,7,20,,5.5833,169.033,351.8,3,348.5,2,-99,-9.9,1011,-99.9,28.7,2,-9.999,9,38.72
Hakuho-maru,KH88-1,861,1988,3,7,21,,5.5833,168.817,352.6,2,348.7,2,-99,-9.9,1012,-99.9,28.7,2,-9.999,9,38.67
Hakuho-maru,KH88-1,862,1988,3,7,22,,5.5667,168.6,352.1,2,350.2,2,-99,-9.9,1012.3,-99.9,28.7,2,-9.999,9,38.72
Hakuho-maru,KH88-1,863,1988,3,7,23,,5.5667,168.383,352.3,2,351.3,2,-99,-9.9,1012.4,-99.9,28.8,2,-9.999,9,38.83
Hakuho-maru,KH88-1,864,1988,3,8,0,,5.55,168.167,352.5,2,352.9,2,-99,-9.9,1012.1,-99.9,28.9,2,-9.999,9,39.12
Hakuho-maru,KH88-1,865,1988,3,8,1,,5.6,167.95,352,2,354.2,2,-99,-9.9,1011.3,-99.9,28.9,2,-9.999,9,38.99
Hakuho-maru,KH88-1,866,1988,3,8,2,,5.6,167.733,351.7,3,357.1,2,-99,-9.9,1010.5,-99.9,28.9,2,-9.999,9,39.12
Hakuho-maru,KH88-1,867,1988,3,8,3,,5.6,167.517,352,2,354.4,2,-99,-9.9,1009.8,-99.9,29.1,2,-9.999,9,39.47
Hakuho-maru,KH88-1,868,1988,3,8,4,,5.6,167.483,362.3,3,356.1,2,-99,-9.9,1009.2,-99.9,29.1,2,-9.999,9,39.49
Hakuho-maru,KH88-1,869,1988,3,8,5,,5.6167,167.483,352.9,3,356.5,2,-99,-9.9,1009.4,-99.9,29,2,-9.999,9,39.33
Hakuho-maru,KH88-1,870,1988,3,8,6,,5.6167,167.283,351,3,351.2,2,-99,-9.9,1009.9,-99.9,29.1,2,-9.999,9,39.44
Hakuho-maru,KH88-1,871,1988,3,8,7,,5.6333,167.05,351.9,3,351.9,2,-99,-9.9,1010.5,-99.9,29,2,-9.999,9,39.4
Hakuho-maru,KH88-1,872,1988,3,8,8,,5.6333,166.817,352.5,2,354.1,2,-99,-9.9,1011,-99.9,29,2,-9.999,9,39.35